K5VP Weather Reports


time (UTC)temp
F
wind
direction
speed
knots
gust
knots
rain 1hr
in
rain 24hr
in
rain mn
in
humidity
%
barometer
mb
20260906080555 78 54 0.0 0.0 0.00 0.00 0.00 91 1012.1
20260906080049 78 54 0.0 0.0 0.00 0.00 0.00 91 1012.0
20260906075545 78 54 0.0 0.0 0.00 0.00 0.00 90 1012.0
20260906075028 78 54 0.0 0.0 0.00 0.00 0.00 90 1011.9
20260906074528 78 54 0.0 0.0 0.00 0.00 0.00 90 1011.9
20260906074016 78 54 0.0 0.0 0.00 0.00 0.00 91 1011.9
20260906073506 78 54 0.0 0.0 0.00 0.00 0.00 91 1012.0
20260906072944 78 54 0.0 0.9 0.00 0.00 0.00 91 1012.1
20260906072436 78 94 0.0 0.0 0.00 0.00 0.00 91 1011.9
20260906071927 78 94 0.0 0.0 0.00 0.00 0.00 91 1011.9
20260906071410 78 219 0.0 0.0 0.00 0.00 0.00 91 1011.9
20260906070903 79 219 0.0 0.0 0.00 0.00 0.00 91 1011.9
20260906070353 79 226 0.0 0.0 0.00 0.00 0.00 91 1011.8
20260906065849 79 226 0.0 0.0 0.00 0.00 0.00 90 1011.8
20260906065353 79 226 0.0 0.0 0.00 0.00 0.00 90 1011.8
20260906064848 80 226 0.0 0.0 0.00 0.00 0.00 89 1011.9
20260906064344 80 226 0.0 0.0 0.00 0.00 0.00 88 1011.9
20260906063843 80 226 0.0 0.0 0.00 0.00 0.00 87 1011.9
20260906063340 80 226 0.0 0.0 0.00 0.00 0.00 87 1012.0
20260906062837 80 226 0.0 0.0 0.00 0.00 0.00 87 1012.0
20260906062345 80 232 0.0 0.0 0.00 0.00 0.00 87 1012.1
20260906061835 80 232 0.0 0.0 0.00 0.00 0.00 87 1012.1
20260906061318 80 259 0.0 0.0 0.00 0.00 0.00 86 1012.1
20260906060810 81 260 0.0 0.0 0.00 0.00 0.00 86 1012.2
20260906060255 81 267 0.0 0.0 0.00 0.00 0.00 86 1012.2
20260906055747 80 265 0.0 0.0 0.00 0.00 0.00 86 1012.2
20260906055236 80 272 0.0 0.0 0.00 0.00 0.00 86 1012.2
20260906054740 81 272 0.0 0.0 0.00 0.00 0.00 85 1012.3
20260906054219 81 272 0.0 0.0 0.00 0.00 0.00 85 1012.3
20260906053657 81 272 0.0 0.0 0.00 0.00 0.00 85 1012.3
20260906053145 81 307 0.0 0.0 0.00 0.00 0.00 86 1012.3
20260906052644 81 307 0.0 0.0 0.00 0.00 0.00 85 1012.3
20260906052137 81 307 0.0 0.0 0.00 0.00 0.00 86 1012.4
20260906051631 81 359 0.0 0.0 0.00 0.00 0.00 88 1012.4
20260906051116 81 252 0.0 0.0 0.00 0.00 0.00 87 1012.4
20260906050602 80 252 0.0 0.0 0.00 0.00 0.00 86 1012.5
20260906050048 80 317 0.0 0.0 0.00 0.00 0.00 86 1012.5
20260906045533 80 317 0.0 0.0 0.00 0.00 0.00 88 1012.6
20260906045026 80 317 0.0 0.0 0.00 0.00 0.00 90 1012.6
20260906044526 80 317 0.0 0.0 0.00 0.00 0.00 91 1012.7
20260906044016 79 317 0.0 0.0 0.00 0.00 0.00 91 1012.7
20260906043505 79 317 0.0 0.0 0.00 0.00 0.00 92 1012.7
20260906043001 79 317 0.0 0.0 0.00 0.00 0.00 92 1012.8
20260906042456 79 317 0.0 0.0 0.00 0.00 0.00 92 1012.8
20260906041939 79 317 0.0 0.0 0.00 0.00 0.00 92 1012.8
20260906041444 79 317 0.0 0.0 0.00 0.00 0.00 91 1012.7
20260906040942 79 317 0.0 0.0 0.00 0.00 0.00 91 1012.7
20260906040449 79 317 0.0 0.0 0.00 0.00 0.00 91 1012.7
20260906035940 79 317 0.0 0.0 0.00 0.00 0.00 91 1012.6
20260906035446 79 317 0.0 0.0 0.00 0.00 0.00 91 1012.5
20260906034928 79 317 0.0 0.0 0.00 0.00 0.00 91 1012.6
20260906034418 79 317 0.0 0.0 0.00 0.00 0.00 91 1012.5
20260906033902 80 317 0.0 0.0 0.00 0.00 0.00 91 1012.5
20260906033342 80 317 0.0 0.0 0.00 0.00 0.00 90 1012.5
20260906032823 80 317 0.0 0.0 0.00 0.00 0.00 90 1012.4
20260906032309 80 317 0.0 0.0 0.00 0.00 0.00 90 1012.3
20260906031805 80 317 0.0 0.0 0.00 0.00 0.00 90 1012.3
20260906031306 80 317 0.0 0.0 0.00 0.00 0.00 90 1012.2
20260906030756 80 317 0.0 0.0 0.00 0.00 0.00 89 1012.1
20260906030242 80 317 0.0 0.0 0.00 0.00 0.00 89 1012.0
20260906025734 80 317 0.0 0.0 0.00 0.00 0.00 88 1012.0
20260906025218 80 317 0.0 0.0 0.00 0.00 0.00 87 1012.0
20260906024712 81 317 0.0 0.0 0.00 0.00 0.00 87 1011.9
20260906024159 81 317 0.0 0.0 0.00 0.00 0.00 87 1011.8
20260906023645 81 317 0.0 0.0 0.00 0.00 0.00 86 1011.8
20260906023148 81 317 0.0 0.0 0.00 0.00 0.00 85 1011.8
20260906022629 81 317 0.0 0.0 0.00 0.00 0.00 85 1011.7
20260906022124 81 317 0.0 0.0 0.00 0.00 0.00 85 1011.7
20260906021623 81 317 0.0 0.0 0.00 0.00 0.00 84 1011.7
20260906021105 81 317 0.0 0.0 0.00 0.00 0.00 83 1011.8
20260906020557 81 317 0.0 0.0 0.00 0.00 0.00 82 1011.7
20260906020036 81 317 0.0 0.0 0.00 0.00 0.00 82 1011.8
20260906015522 82 317 0.0 0.0 0.00 0.00 0.00 82 1011.7
20260906015025 82 317 0.0 0.0 0.00 0.00 0.00 81 1011.7
20260906014510 82 317 0.0 0.0 0.00 0.00 0.00 81 1011.7
20260906014006 82 317 0.0 0.0 0.00 0.00 0.00 80 1011.6
20260906013514 82 317 0.0 0.0 0.00 0.00 0.00 81 1011.5
20260906013018 82 317 0.0 0.0 0.00 0.00 0.00 81 1011.6
20260906012518 83 317 0.0 0.0 0.00 0.00 0.00 80 1011.6
20260906012019 83 317 0.0 0.0 0.00 0.00 0.00 79 1011.5
20260906011507 83 317 0.0 0.0 0.00 0.00 0.00 77 1011.5
20260906010951 83 317 0.0 0.0 0.00 0.00 0.00 77 1011.5
20260906010451 83 317 0.0 0.0 0.00 0.00 0.00 78 1011.4
20260906005953 83 317 0.0 0.0 0.00 0.00 0.00 80 1011.4
20260906005455 83 317 0.0 0.0 0.00 0.00 0.00 79 1011.3
20260906004944 84 317 0.0 0.0 0.00 0.00 0.00 78 1011.3
20260906004440 84 317 0.0 0.0 0.00 0.00 0.00 78 1011.2
20260906003927 84 317 0.0 0.0 0.00 0.00 0.00 76 1011.2
20260906003410 85 317 0.0 0.0 0.00 0.00 0.00 74 1011.2
20260906002917 85 317 0.0 0.0 0.00 0.00 0.00 73 1011.2
20260906002416 85 317 0.0 0.0 0.00 0.00 0.00 72 1011.3
20260906001856 85 317 0.0 0.0 0.00 0.00 0.00 71 1011.4
20260906001354 86 317 0.0 0.0 0.00 0.00 0.00 70 1011.4
20260906000853 86 317 0.0 0.0 0.00 0.00 0.00 71 1011.4
20260906000351 87 317 0.0 0.0 0.00 0.00 0.00 72 1011.4
20260905235833 87 317 0.0 0.0 0.00 0.00 0.00 71 1011.4
20260905235340 87 317 0.0 0.0 0.00 0.00 0.00 72 1011.3
20260905234836 88 319 0.0 0.0 0.00 0.00 0.00 71 1011.3
20260905234334 88 319 0.0 0.0 0.00 0.00 0.00 69 1011.3
20260905233829 89 319 0.0 0.0 0.00 0.00 0.00 69 1011.4
20260905233331 89 319 0.0 0.0 0.00 0.00 0.00 69 1011.4
20260905232835 90 319 0.0 0.0 0.00 0.00 0.00 68 1011.5
20260905232339 90 319 0.0 0.0 0.00 0.00 0.00 67 1011.5
20260905231825 90 319 0.0 0.0 0.00 0.00 0.00 67 1011.3
20260905231310 91 319 0.0 0.0 0.00 0.00 0.00 66 1011.4
20260905230804 91 319 0.0 0.0 0.00 0.00 0.00 65 1011.4
20260905230253 91 319 0.0 0.0 0.00 0.00 0.00 63 1011.4
20260905225742 92 319 0.0 0.0 0.00 0.00 0.00 63 1011.5
20260905225223 92 319 0.0 0.0 0.00 0.00 0.00 62 1011.4
20260905224707 93 319 0.0 0.0 0.00 0.00 0.00 61 1011.5
20260905224211 93 319 0.0 0.0 0.00 0.00 0.00 59 1011.5
20260905223649 94 319 0.0 0.0 0.00 0.00 0.00 55 1011.5
20260905223138 95 319 0.0 0.0 0.00 0.00 0.00 54 1011.4
20260905222632 95 319 0.0 0.0 0.00 0.00 0.00 51 1011.4
20260905222113 95 319 0.0 0.0 0.00 0.00 0.00 53 1011.5
20260905221605 96 319 0.0 0.0 0.00 0.00 0.00 53 1011.5
20260905221058 97 319 0.0 0.0 0.00 0.00 0.00 50 1011.4
20260905220545 99 319 0.0 0.0 0.00 0.00 0.00 47 1011.5
20260905220024 101 319 0.0 0.0 0.00 0.00 0.00 45 1011.6
20260905215509 101 319 0.0 0.0 0.00 0.00 0.00 45 1011.7
20260905214958 100 319 0.0 0.0 0.00 0.00 0.00 48 1011.7
20260905214442 99 319 0.0 0.0 0.00 0.00 0.00 45 1011.7
20260905213924 99 319 0.0 0.0 0.00 0.00 0.00 48 1011.8
20260905213410 100 329 0.0 0.0 0.00 0.00 0.00 45 1011.8
20260905212851 99 330 0.0 0.0 0.00 0.00 0.00 47 1011.8
20260905212356 99 260 0.0 0.0 0.00 0.00 0.00 46 1011.8
20260905211848 99 238 0.0 0.0 0.00 0.00 0.00 48 1011.8
20260905211349 98 235 0.0 0.0 0.00 0.00 0.00 46 1011.8
20260905210854 98 235 0.0 0.0 0.00 0.00 0.00 47 1011.9
20260905210359 98 41 0.0 0.0 0.00 0.00 0.00 47 1011.9
20260905205902 98 329 0.0 0.0 0.00 0.00 0.00 47 1011.9
20260905205357 98 271 0.0 0.0 0.00 0.00 0.00 48 1012.0
20260905204900 98 276 0.0 0.0 0.00 0.00 0.00 47 1012.1
20260905204350 98 261 0.0 0.0 0.00 0.00 0.00 48 1012.1
20260905203848 98 238 0.0 0.0 0.00 0.00 0.00 45 1012.1
20260905203339 98 238 0.0 0.9 0.00 0.00 0.00 46 1012.2
20260905202837 97 250 0.0 0.0 0.00 0.00 0.00 47 1012.2
20260905202317 97 249 0.0 0.0 0.00 0.00 0.00 48 1012.3
20260905201812 97 42 0.0 0.0 0.00 0.00 0.00 47 1012.4
20260905201251 97 44 0.0 0.9 0.00 0.00 0.00 48 1012.5
20260905200729 97 111 0.0 0.9 0.00 0.00 0.00 49 1012.6
20260905200212 96 266 0.0 0.0 0.00 0.00 0.00 49 1012.7
20260905195655 96 277 0.0 0.0 0.00 0.00 0.00 50 1012.8
20260905195144 95 91 0.0 0.9 0.00 0.00 0.00 52 1012.8
20260905194634 95 260 0.0 0.0 0.00 0.00 0.00 52 1012.9
20260905194137 94 266 0.0 0.0 0.00 0.00 0.00 53 1012.9
20260905193637 93 266 0.0 0.0 0.00 0.00 0.00 54 1013.1
20260905193122 92 322 0.0 0.0 0.00 0.00 0.00 60 1013.1
20260905192625 91 50 0.0 0.0 0.00 0.00 0.00 66 1013.2
20260905192111 90 50 0.0 0.0 0.00 0.00 0.00 70 1013.4
20260905191618 90 50 0.0 0.0 0.00 0.00 0.00 70 1013.5
20260905191104 91 50 0.0 0.0 0.00 0.00 0.00 65 1013.6
20260905190558 92 62 0.0 0.9 0.00 0.00 0.00 63 1013.7
20260905190046 94 238 0.0 0.0 0.00 0.00 0.00 60 1013.6
20260905185538 95 245 0.0 0.0 0.00 0.00 0.00 55 1013.7
20260905185044 96 328 0.0 0.0 0.00 0.00 0.00 51 1013.7
20260905184541 97 78 0.0 0.0 0.00 0.00 0.00 52 1013.8
20260905184038 97 78 0.0 0.0 0.00 0.00 0.00 50 1013.8
20260905183528 96 226 0.0 0.0 0.00 0.00 0.00 50 1013.7
20260905183035 96 165 0.0 1.7 0.00 0.00 0.00 53 1013.8
20260905182531 95 62 0.0 0.0 0.00 0.00 0.00 54 1014.0
20260905182035 96 62 0.0 0.0 0.00 0.00 0.00 51 1014.0
20260905181523 96 115 0.0 0.0 0.00 0.00 0.00 51 1014.0
20260905181029 96 107 0.0 0.0 0.00 0.00 0.00 53 1013.9
20260905180518 96 51 0.0 0.0 0.00 0.00 0.00 54 1014.0
20260905180017 96 56 0.0 2.6 0.00 0.00 0.00 54 1014.1
20260905175508 96 51 0.0 0.0 0.00 0.00 0.00 51 1014.1
20260905175012 96 66 0.0 2.6 0.00 0.00 0.00 51 1014.1
20260905174455 96 98 0.0 0.0 0.00 0.00 0.00 54 1014.1
20260905173935 95 99 0.0 0.0 0.00 0.00 0.00 57 1014.1
20260905173427 95 99 0.0 0.0 0.00 0.00 0.00 54 1014.2
20260905172929 96 93 0.0 0.0 0.00 0.00 0.00 54 1014.2
20260905172416 96 301 0.0 0.0 0.00 0.00 0.00 55 1014.3
20260905171909 96 252 0.0 0.0 0.00 0.00 0.00 55 1014.3
20260905171409 95 217 0.0 0.0 0.00 0.00 0.00 56 1014.4
20260905170851 95 229 0.0 0.0 0.00 0.00 0.00 56 1014.5
20260905170358 95 109 0.0 1.7 0.00 0.00 0.00 56 1014.5
20260905165836 96 58 0.0 0.0 0.00 0.00 0.00 57 1014.6
20260905165325 96 104 0.0 0.0 0.00 0.00 0.00 57 1014.7
20260905164811 95 227 0.0 0.0 0.00 0.00 0.00 57 1014.7
20260905164318 95 231 0.0 0.0 0.00 0.00 0.00 59 1014.7
20260905163811 95 122 0.0 0.0 0.00 0.00 0.00 55 1014.8
20260905163257 94 306 0.0 0.0 0.00 0.00 0.00 57 1014.8
20260905162800 94 300 0.0 0.0 0.00 0.00 0.00 57 1014.8
20260905162253 94 250 0.0 0.9 0.00 0.00 0.00 58 1014.8
20260905161751 94 42 0.0 0.0 0.00 0.00 0.00 59 1014.9
20260905161255 93 41 0.0 0.0 0.00 0.00 0.00 60 1015.0
20260905160743 93 245 0.0 0.0 0.00 0.00 0.00 62 1015.0
20260905160227 93 248 0.0 0.0 0.00 0.00 0.00 63 1015.0
20260905155719 92 257 0.0 0.0 0.00 0.00 0.00 62 1015.0
20260905155203 92 251 0.0 0.0 0.00 0.00 0.00 64 1015.1
20260905154659 92 214 0.0 0.0 0.00 0.00 0.00 63 1015.1
20260905154200 91 282 0.0 0.0 0.00 0.00 0.00 63 1015.0
20260905153646 91 282 0.0 0.0 0.00 0.00 0.00 64 1015.2
20260905153128 90 289 0.0 0.0 0.00 0.00 0.00 67 1015.3
20260905152614 90 289 0.0 0.0 0.00 0.00 0.00 71 1015.3
20260905152103 89 129 0.0 0.0 0.00 0.00 0.00 70 1015.3
20260905151555 89 129 0.0 0.0 0.00 0.00 0.00 72 1015.3
20260905151059 89 129 0.0 0.0 0.00 0.00 0.00 72 1015.4
20260905150554 88 129 0.0 0.0 0.00 0.00 0.00 73 1015.4
20260905150043 88 129 0.0 0.0 0.00 0.00 0.00 74 1015.4
20260905145540 88 129 0.0 0.0 0.00 0.00 0.00 74 1015.5
20260905145043 87 129 0.0 0.0 0.00 0.00 0.00 76 1015.5
20260905144521 86 129 0.0 0.0 0.00 0.00 0.00 77 1015.4
20260905144028 86 129 0.0 0.0 0.00 0.00 0.00 79 1015.4
20260905143528 85 129 0.0 0.0 0.00 0.00 0.00 80 1015.3
20260905143028 84 129 0.0 0.0 0.00 0.00 0.00 82 1015.3
20260905142528 84 129 0.0 0.0 0.00 0.00 0.00 84 1015.3
20260905142012 83 129 0.0 0.0 0.00 0.00 0.00 84 1015.3
20260905141458 82 129 0.0 0.0 0.00 0.00 0.00 86 1015.3
20260905140942 82 129 0.0 0.0 0.00 0.00 0.00 88 1015.3
20260905140431 81 129 0.0 0.0 0.00 0.00 0.00 91 1015.3
20260905135912 80 129 0.0 0.0 0.00 0.00 0.00 93 1015.3
20260905135410 80 129 0.0 0.0 0.00 0.00 0.00 94 1015.3
20260905134913 79 129 0.0 0.0 0.00 0.00 0.00 95 1015.3
20260905134406 79 128 0.0 0.0 0.00 0.00 0.00 95 1015.3
20260905133848 79 127 0.0 0.0 0.00 0.00 0.00 95 1015.4
20260905133334 79 127 0.0 0.0 0.00 0.00 0.00 95 1015.4
20260905132819 79 127 0.0 0.0 0.00 0.00 0.00 95 1015.4
20260905132318 78 127 0.0 0.0 0.00 0.00 0.00 95 1015.3
20260905131821 78 127 0.0 0.0 0.00 0.00 0.00 95 1015.3
20260905131301 78 127 0.0 0.0 0.00 0.00 0.00 95 1015.3
20260905130740 78 127 0.0 0.0 0.00 0.00 0.00 95 1015.2
20260905130235 77 127 0.0 0.0 0.00 0.00 0.00 95 1015.2
20260905125734 77 127 0.0 0.0 0.00 0.00 0.00 95 1015.3
20260905125220 77 127 0.0 0.0 0.00 0.00 0.00 95 1015.2
20260905124716 77 127 0.0 0.0 0.00 0.00 0.00 95 1015.1
20260905124213 76 127 0.0 0.0 0.00 0.00 0.00 95 1015.1
20260905123712 76 127 0.0 0.0 0.00 0.00 0.00 95 1015.1
20260905123201 75 127 0.0 0.0 0.00 0.00 0.00 95 1015.0
20260905122647 75 127 0.0 0.0 0.00 0.00 0.00 95 1014.9
20260905122136 75 127 0.0 0.0 0.00 0.00 0.00 95 1014.8
20260905121642 75 127 0.0 0.0 0.00 0.00 0.00 95 1014.8
20260905121137 75 127 0.0 0.0 0.00 0.00 0.00 95 1014.7
20260905120630 75 127 0.0 0.0 0.00 0.00 0.00 95 1014.8
20260905120137 75 127 0.0 0.0 0.00 0.00 0.00 95 1014.8
20260905115627 75 127 0.0 0.0 0.00 0.00 0.00 95 1014.7
20260905115112 75 127 0.0 0.0 0.00 0.00 0.00 95 1014.7
20260905114603 75 127 0.0 0.0 0.00 0.00 0.00 95 1014.8
20260905114045 75 127 0.0 0.0 0.00 0.00 0.00 95 1014.7